STARLINK-36938, 68124

Orbit data source: Space-Track

STARLINK-36938, 68124 is a payload satellite owned by SpaceX/Seattle (US) in SSO that was launched on Sun, 08 Mar 2026 UTC via an FALCON 9 launch vehicle from the Air Force Western Test Range (AFWTR). Payload-class satellites include a variety of spacecraft equipped with specific instruments for various scientific and technological missions. These include communications satellites like Starlink; space stations such as the ISS; scientific satellites like the Hubble; Earth observation satellites from companies like Planet Labs, Umbra, and HawkEye 360; GPS; miniature CubeSats for education and research; and military/defense satellites.

Loading next visibility...
Identifier
68124, 2026-044Z
Orbit
SSO
Country
Flag of USUS
Related business
Manufacturer
SpaceX/Seattle
Mission
Operational spacecraft
Bus & Motor
STARLINK V2MO, Unknown motor
Mass
575 kg wet, ~530 kg dry
Launch date (UTC)
2026-03-08 (3 months ago)
Launch vehicle
FALCON 9
Launch site
Air Force Western Test Range (AFWTR)
Object type
Payload
Rocket body
Debris
Shape & HBR
Unknown shape, 17.7 m
Radar Cross Section
Large (>1 m²)

Expand to show TLE details & history
Last TLE update: 6 days ago

TLE from 6 days ago
0 STARLINK-36938
1 68124U 26044Z   26154.46510382  .00024484  00000-0  75797-3 0  9994
2 68124  97.2850 117.9390 0000772  49.6098 310.5212 15.33457289 14923
Epoch: 2026-06-03T11:09Z
TLE epoch observation values (Epoch: 2026-06-03T11:09:44.970Z)
Latitude
Longitude
58.57829°
Altitude
468.275 km
Speed
7.632 km/s
True Right ascension
07h 51m 45s
True Declination
0° 00' 00"
Sunlit
Object was in daylight at epoch
Visualization orbit readout
Latitude
Unknown
Longitude
Unknown
Altitude
Unknown
Speed
Unknown
Apparent Right ascension
Unknown
Apparent Declination
Unknown
Sunlit
N/A
Visualization observer readout
Local Sidereal Time
18:55:20
Azimuth
Unknown
Elevation
Unknown
Doppler factor
Unknown
Orbital elements
Apogee altitude
462.977 km
Perigee altitude
461.921 km
Semi-major axis
6,840.586 km
Eccentricity
0.00008
Inclination
97.285°
RAAN
117.939°
Arg. of periapsis
49.6098°
True anomaly
310.51447°
Mean anomaly
310.5212°
Eccentric anomaly
310.51784°
Mean motion
3.83622 °/min
Orbital period
93.84 mins
BSTAR
0.00075797
Loading maneuver chart data...
Computing Atmospheric mass density...
Loading historical data...
Loading historical data...
Loading historical data...
Loading historical data...
Loading historical data...
Loading historical data...
Loading historical data...

Documentation

Showing up to 5 results
|